• In Russia
  • List of Countries
  • For 7 days
  • Water Temperature
  • Satellite Maps
  • Weather Map
  • Weather Widgets
  • user-avatar
    Login

    Hourly Weather Sydney

    Today, 28 February, Tuesday

    Time Temperature Precipitation Wind Pressure Humidity
    00:00 +20°C° 0.4 mm 2 mps 766 mmHg 92%
    01:00 +20°C° 0.4 mm 2 mps 765 mmHg 93%
    02:00 +19°C° 0.2 mm 2 mps 765 mmHg 94%
    03:00 +19°C° 0.2 mm 2 mps 765 mmHg 95%
    04:00 +19°C° 0 mm 3 mps 765 mmHg 95%
    05:00 +20°C° 0.2 mm 3 mps 765 mmHg 93%
    06:00 +20°C° 0.2 mm 3 mps 765 mmHg 91%
    07:00 +21°C° 0.2 mm 3 mps 765 mmHg 89%
    08:00 +24°C° 0.4 mm 3 mps 766 mmHg 83%
    09:00 +25°C° 0.4 mm 3 mps 766 mmHg 76%
    10:00 +27°C° 0.4 mm 3 mps 766 mmHg 70%
    11:00 +27°C° 0.3 mm 3 mps 765 mmHg 65%
    12:00 +28°C° 0.3 mm 3 mps 765 mmHg 60%
    13:00 +29°C° 0.3 mm 4 mps 765 mmHg 55%
    14:00 +29°C° 0.1 mm 4 mps 764 mmHg 57%
    15:00 +29°C° 0.1 mm 4 mps 764 mmHg 58%
    16:00 +28°C° 0.1 mm 4 mps 764 mmHg 59%
    17:00 +26°C° 0.1 mm 4 mps 764 mmHg 67%
    18:00 +25°C° 0.1 mm 4 mps 765 mmHg 76%
    19:00 +22°C° 0.1 mm 4 mps 765 mmHg 84%
    20:00 +22°C° 0 mm 4 mps 765 mmHg 87%
    21:00 +21°C° 0 mm 4 mps 765 mmHg 90%
    22:00 +21°C° 0 mm 3 mps 765 mmHg 93%
    23:00 +21°C° 0.3 mm 3 mps 765 mmHg 94%

    Tomorrow, 1 March, Wednesday

    Time Temperature Precipitation Wind Pressure Humidity
    00:00 +21°C° 0.3 mm 3 mps 765 mmHg 94%
    01:00 +21°C° 0.3 mm 3 mps 764 mmHg 95%
    02:00 +21°C° 0.6 mm 3 mps 764 mmHg 95%
    03:00 +20°C° 0.6 mm 3 mps 764 mmHg 96%
    04:00 +20°C° 0.6 mm 3 mps 764 mmHg 96%
    05:00 +21°C° 0.4 mm 3 mps 764 mmHg 94%
    06:00 +21°C° 0.4 mm 3 mps 764 mmHg 91%
    07:00 +22°C° 0.4 mm 3 mps 764 mmHg 89%
    08:00 +24°C° 0.6 mm 3 mps 764 mmHg 83%
    09:00 +26°C° 0.6 mm 3 mps 764 mmHg 76%
    10:00 +27°C° 0.6 mm 2 mps 764 mmHg 70%
    11:00 +27°C° 0.3 mm 3 mps 764 mmHg 69%
    12:00 +28°C° 0.3 mm 3 mps 764 mmHg 67%
    13:00 +28°C° 0.3 mm 3 mps 763 mmHg 65%
    14:00 +28°C° 0.1 mm 3 mps 763 mmHg 62%
    15:00 +28°C° 0.1 mm 3 mps 763 mmHg 59%
    16:00 +29°C° 0.1 mm 3 mps 763 mmHg 56%
    17:00 +27°C° 0.1 mm 3 mps 763 mmHg 65%
    18:00 +25°C° 0.1 mm 2 mps 763 mmHg 74%
    19:00 +23°C° 0.1 mm 2 mps 763 mmHg 83%
    20:00 +23°C° 0.3 mm 1 mps 763 mmHg 87%
    21:00 +22°C° 0.3 mm 1 mps 764 mmHg 90%
    22:00 +21°C° 0.3 mm 1 mps 764 mmHg 93%
    23:00 +21°C° 0.1 mm 1 mps 764 mmHg 94%

    Day after tomorrow, 2 March, Thursday

    Time Temperature Precipitation Wind Pressure Humidity
    00:00 +21°C° 0.1 mm 1 mps 763 mmHg 94%
    01:00 +21°C° 0.1 mm 1 mps 763 mmHg 94%
    02:00 +21°C° 0 mm 1 mps 763 mmHg 95%
    03:00 +21°C° 0 mm 1 mps 762 mmHg 95%
    04:00 +19°C° 0 mm 2 mps 762 mmHg 96%
    05:00 +20°C° 0 mm 2 mps 762 mmHg 93%
    06:00 +21°C° 0 mm 2 mps 763 mmHg 90%
    07:00 +21°C° 0 mm 2 mps 763 mmHg 87%
    08:00 +25°C° 0 mm 2 mps 763 mmHg 75%
    09:00 +27°C° 0 mm 2 mps 763 mmHg 64%
    10:00 +30°C° 0 mm 2 mps 763 mmHg 53%
    11:00 +31°C° 0 mm 2 mps 762 mmHg 51%
    12:00 +31°C° 0 mm 2 mps 762 mmHg 49%
    13:00 +33°C° 0 mm 3 mps 761 mmHg 47%
    14:00 +31°C° 0 mm 3 mps 761 mmHg 50%
    15:00 +31°C° 0 mm 3 mps 761 mmHg 53%
    16:00 +30°C° 0 mm 3 mps 760 mmHg 56%
    17:00 +28°C° 0.1 mm 3 mps 761 mmHg 66%
    18:00 +26°C° 0.1 mm 3 mps 761 mmHg 75%
    19:00 +24°C° 0.1 mm 2 mps 761 mmHg 84%
    20:00 +23°C° 0.2 mm 2 mps 762 mmHg 88%
    21:00 +22°C° 0.2 mm 1 mps 762 mmHg 92%
    22:00 +21°C° 0.2 mm 1 mps 762 mmHg 97%
    23:00 +21°C° 0.5 mm 1 mps 762 mmHg 96%

    3 March, Friday

    Time Temperature Precipitation Wind Pressure Humidity
    00:00 +22°C° 0.5 mm 1 mps 762 mmHg 96%
    01:00 +22°C° 0.5 mm 1 mps 761 mmHg 95%
    02:00 +21°C° 0 mm 2 mps 761 mmHg 95%
    03:00 +20°C° 0 mm 2 mps 761 mmHg 96%
    04:00 +20°C° 0 mm 3 mps 761 mmHg 96%
    05:00 +21°C° 0 mm 3 mps 761 mmHg 93%
    06:00 +21°C° 0 mm 4 mps 762 mmHg 91%
    07:00 +22°C° 0 mm 4 mps 762 mmHg 88%
    08:00 +23°C° 0.2 mm 5 mps 762 mmHg 79%
    09:00 +26°C° 0.2 mm 5 mps 763 mmHg 70%
    10:00 +28°C° 0.2 mm 5 mps 763 mmHg 61%
    11:00 +28°C° 0.9 mm 6 mps 762 mmHg 62%
    12:00 +28°C° 0.9 mm 7 mps 762 mmHg 62%
    13:00 +28°C° 0.9 mm 7 mps 762 mmHg 63%
    14:00 +28°C° 0.5 mm 8 mps 761 mmHg 62%
    15:00 +28°C° 0.5 mm 8 mps 761 mmHg 62%
    16:00 +28°C° 0.5 mm 8 mps 761 mmHg 61%
    17:00 +27°C° 0.3 mm 7 mps 761 mmHg 66%
    18:00 +24°C° 0.3 mm 7 mps 762 mmHg 71%
    19:00 +23°C° 0.3 mm 6 mps 762 mmHg 76%
    20:00 +23°C° 0.6 mm 6 mps 762 mmHg 76%
    21:00 +23°C° 0.6 mm 5 mps 762 mmHg 77%
    22:00 +23°C° 0.6 mm 5 mps 762 mmHg 78%
    23:00 +23°C° 0.9 mm 4 mps 762 mmHg 80%

    4 March, Saturday

    Time Temperature Precipitation Wind Pressure Humidity
    00:00 +22°C° 0.9 mm 4 mps 761 mmHg 82%
    01:00 +22°C° 0.9 mm 3 mps 761 mmHg 84%
    02:00 +22°C° 1 mm 4 mps 761 mmHg 86%
    03:00 +21°C° 1 mm 4 mps 761 mmHg 89%
    04:00 +21°C° 1 mm 4 mps 760 mmHg 92%
    05:00 +21°C° 1.9 mm 4 mps 761 mmHg 93%
    06:00 +21°C° 1.9 mm 5 mps 761 mmHg 94%
    07:00 +21°C° 1.9 mm 5 mps 761 mmHg 94%
    08:00 +22°C° 1.3 mm 5 mps 761 mmHg 93%
    09:00 +22°C° 1.3 mm 5 mps 761 mmHg 92%
    10:00 +22°C° 1.3 mm 5 mps 761 mmHg 91%
    11:00 +23°C° 1.1 mm 5 mps 761 mmHg 88%
    12:00 +23°C° 1.1 mm 5 mps 760 mmHg 85%
    13:00 +25°C° 1.1 mm 5 mps 760 mmHg 83%
    14:00 +23°C° 1.3 mm 6 mps 759 mmHg 84%
    15:00 +23°C° 1.3 mm 6 mps 759 mmHg 85%
    16:00 +23°C° 1.3 mm 6 mps 759 mmHg 86%
    17:00 +22°C° 1.5 mm 6 mps 759 mmHg 88%
    18:00 +21°C° 1.5 mm 5 mps 759 mmHg 90%
    19:00 +21°C° 1.5 mm 5 mps 760 mmHg 92%
    20:00 +21°C° 1.6 mm 5 mps 759 mmHg 93%
    21:00 +21°C° 1.6 mm 5 mps 759 mmHg 93%
    22:00 +20°C° 1.6 mm 5 mps 759 mmHg 93%
    23:00 +20°C° 0.8 mm 6 mps 759 mmHg 93%

    5 March, Sunday

    Time Temperature Precipitation Wind Pressure Humidity
    00:00 +20°C° 0.8 mm 6 mps 758 mmHg 92%
    01:00 +20°C° 0.8 mm 6 mps 758 mmHg 92%
    02:00 +20°C° 1 mm 6 mps 758 mmHg 92%
    03:00 +20°C° 1 mm 6 mps 757 mmHg 92%
    04:00 +20°C° 1 mm 6 mps 757 mmHg 92%
    05:00 +20°C° 1.1 mm 7 mps 757 mmHg 92%
    06:00 +20°C° 1.1 mm 7 mps 757 mmHg 92%
    07:00 +20°C° 1.1 mm 8 mps 758 mmHg 92%
    08:00 +21°C° 0.4 mm 8 mps 758 mmHg 90%
    09:00 +21°C° 0.4 mm 9 mps 758 mmHg 87%
    10:00 +21°C° 0.4 mm 9 mps 758 mmHg 85%
    11:00 +22°C° 0.4 mm 9 mps 757 mmHg 82%
    12:00 +22°C° 0.4 mm 10 mps 757 mmHg 79%
    13:00 +22°C° 0.4 mm 10 mps 757 mmHg 76%
    14:00 +22°C° 0.4 mm 10 mps 756 mmHg 76%
    15:00 +22°C° 0.4 mm 10 mps 756 mmHg 76%
    16:00 +21°C° 0.4 mm 10 mps 756 mmHg 76%
    17:00 +21°C° 1 mm 10 mps 757 mmHg 80%
    18:00 +19°C° 1 mm 10 mps 757 mmHg 84%
    19:00 +18°C° 1 mm 10 mps 757 mmHg 88%
    20:00 +18°C° 1 mm 10 mps 757 mmHg 89%
    21:00 +18°C° 1 mm 10 mps 757 mmHg 90%
    22:00 +18°C° 1 mm 10 mps 757 mmHg 91%
    23:00 +18°C° 1 mm 10 mps 757 mmHg 91%
    Show more